Time,TemperatureF,DewpointF,PressureIn,WindDirection,WindDirectionDegrees,WindSpeedMPH,WindSpeedGustMPH,Humidity,HourlyPrecipIn,Conditions,Clouds,dailyrainin,SoftwareType,DateUTC
2013-07-27 00:03:00,79.9,59.5,29.94,SW,225,1.3,1.3,50,0.00,,,0.00,,2013-07-26 22:03:00,
2013-07-27 00:08:00,79.9,59.5,29.94,SW,225,1.3,1.3,50,0.00,,,0.00,,2013-07-26 22:08:00,
2013-07-27 00:13:00,79.9,59.5,29.94,SW,225,1.3,1.3,50,0.00,,,0.00,,2013-07-26 22:13:00,
2013-07-27 00:18:00,79.7,59.4,29.94,SW,225,0.4,1.3,50,0.00,,,0.00,,2013-07-26 22:18:00,
2013-07-27 00:23:00,79.7,59.4,29.94,South,180,1.3,2.2,50,0.00,,,0.00,,2013-07-26 22:23:00,
2013-07-27 00:28:00,79.7,59.4,29.94,South,180,2.2,2.2,50,0.00,,,0.00,,2013-07-26 22:28:00,
2013-07-27 00:33:00,79.7,59.4,29.94,South,180,0.8,2.2,50,0.00,,,0.00,,2013-07-26 22:33:00,
2013-07-27 00:38:00,79.7,59.4,29.94,South,180,0.8,0.8,50,0.00,,,0.00,,2013-07-26 22:38:00,
2013-07-27 00:43:00,79.7,59.4,29.94,South,180,0.0,0.8,50,0.00,,,0.00,,2013-07-26 22:43:00,
2013-07-27 00:48:00,79.2,59.4,29.94,West,270,0.4,0.0,51,0.00,,,0.00,,2013-07-26 22:48:00,
2013-07-27 00:53:00,79.2,59.4,29.94,NW,315,0.4,0.0,51,0.00,,,0.00,,2013-07-26 22:53:00,
2013-07-27 00:58:00,79.2,59.4,29.94,NW,315,0.0,1.3,51,0.00,,,0.00,,2013-07-26 22:58:00,
2013-07-27 01:03:00,79.2,59.4,29.94,West,270,0.0,0.0,51,0.00,,,0.00,,2013-07-26 23:03:00,
2013-07-27 01:08:00,78.6,59.9,29.94,West,270,0.0,0.0,53,0.00,,,0.00,,2013-07-26 23:08:00,
2013-07-27 01:13:00,78.6,60.4,29.94,South,180,0.4,0.0,54,0.00,,,0.00,,2013-07-26 23:13:00,
2013-07-27 01:18:00,78.6,60.4,29.94,West,270,0.4,0.0,54,0.00,,,0.00,,2013-07-26 23:18:00,
2013-07-27 01:23:00,78.4,60.8,29.94,NW,315,0.8,1.3,55,0.00,,,0.00,,2013-07-26 23:23:00,
2013-07-27 01:28:00,78.1,60.4,29.94,SW,225,0.0,1.3,55,0.00,,,0.00,,2013-07-26 23:28:00,
2013-07-27 01:33:00,78.1,60.4,29.94,West,270,0.0,3.1,55,0.00,,,0.00,,2013-07-26 23:33:00,
2013-07-27 01:43:00,78.1,61.0,29.94,NW,315,2.2,2.2,56,0.00,,,0.00,,2013-07-26 23:43:00,
2013-07-27 01:48:00,78.1,61.5,29.94,NW,315,2.2,3.1,57,0.00,,,0.00,,2013-07-26 23:48:00,
2013-07-27 01:53:00,77.9,61.3,29.94,NW,315,0.8,1.3,57,0.00,,,0.00,,2013-07-26 23:53:00,
2013-07-27 01:58:00,77.9,61.3,29.94,NW,315,1.3,2.6,57,0.00,,,0.00,,2013-07-26 23:58:00,
2013-07-27 02:03:00,77.7,61.2,29.94,NW,315,1.7,2.2,57,0.00,,,0.00,,2013-07-27 00:03:00,
2013-07-27 02:08:00,77.7,61.2,29.94,North,0,1.3,2.2,57,0.00,,,0.00,,2013-07-27 00:08:00,
2013-07-27 02:13:00,77.5,61.0,29.94,NW,315,1.3,1.3,57,0.00,,,0.00,,2013-07-27 00:13:00,
2013-07-27 02:18:00,77.5,61.0,29.94,NW,315,0.8,1.7,57,0.00,,,0.00,,2013-07-27 00:18:00,
2013-07-27 02:23:00,77.4,60.8,29.94,NW,315,1.7,1.7,57,0.00,,,0.00,,2013-07-27 00:23:00,
2013-07-27 02:28:00,77.5,61.0,29.94,West,270,0.4,0.8,57,0.00,,,0.00,,2013-07-27 00:28:00,
2013-07-27 02:33:00,77.2,60.6,29.94,West,270,0.0,0.8,57,0.00,,,0.00,,2013-07-27 00:33:00,
2013-07-27 02:38:00,77.0,61.0,29.94,South,180,0.0,0.0,58,0.00,,,0.00,,2013-07-27 00:38:00,
2013-07-27 02:43:00,77.0,61.0,29.94,South,180,0.4,0.8,58,0.00,,,0.00,,2013-07-27 00:43:00,
2013-07-27 02:48:00,77.0,61.0,29.94,South,180,0.4,0.8,58,0.00,,,0.00,,2013-07-27 00:48:00,
2013-07-27 02:53:00,76.8,60.8,29.94,South,180,0.4,1.3,58,0.00,,,0.00,,2013-07-27 00:53:00,
2013-07-27 02:58:00,76.8,60.8,29.94,South,180,0.4,1.3,58,0.00,,,0.00,,2013-07-27 00:58:00,
2013-07-27 03:03:00,76.6,60.6,29.94,South,180,0.0,1.3,58,0.00,,,0.00,,2013-07-27 01:03:00,
2013-07-27 03:08:00,76.6,60.6,29.94,South,180,0.8,1.3,58,0.00,,,0.00,,2013-07-27 01:08:00,
2013-07-27 03:13:00,76.6,60.6,29.94,South,180,0.8,0.0,58,0.00,,,0.00,,2013-07-27 01:13:00,
2013-07-27 03:18:00,76.5,60.4,29.94,South,180,0.8,0.0,58,0.00,,,0.00,,2013-07-27 01:18:00,
2013-07-27 03:23:00,76.3,60.8,29.94,South,180,0.0,0.0,59,0.00,,,0.00,,2013-07-27 01:23:00,
2013-07-27 03:28:00,76.3,60.8,29.94,South,180,0.0,0.0,59,0.00,,,0.00,,2013-07-27 01:28:00,
2013-07-27 03:33:00,76.3,60.8,29.94,South,180,0.0,0.0,59,0.00,,,0.00,,2013-07-27 01:33:00,
2013-07-27 03:38:00,76.1,60.6,29.94,South,180,0.0,0.0,59,0.00,,,0.00,,2013-07-27 01:38:00,
2013-07-27 03:43:00,76.3,60.8,29.94,SE,135,0.4,0.8,59,0.00,,,0.00,,2013-07-27 01:43:00,
2013-07-27 03:48:00,76.3,60.8,29.94,North,0,0.0,0.4,59,0.00,,,0.00,,2013-07-27 01:48:00,
2013-07-27 03:53:00,76.5,60.4,29.94,ESE,112,1.7,1.7,58,0.00,,,0.00,,2013-07-27 01:53:00,
2013-07-27 03:58:00,76.5,60.4,29.94,East,90,0.4,1.7,58,0.00,,,0.00,,2013-07-27 01:58:00,
2013-07-27 04:03:00,76.1,59.7,29.94,East,90,0.4,1.7,57,0.00,,,0.00,,2013-07-27 02:03:00,
2013-07-27 04:08:00,76.1,59.7,29.91,East,90,0.0,1.7,57,0.00,,,0.00,,2013-07-27 02:08:00,
2013-07-27 04:13:00,76.1,59.7,29.91,South,180,1.7,1.7,57,0.00,,,0.00,,2013-07-27 02:13:00,
2013-07-27 04:18:00,75.7,58.8,29.91,SSE,157,0.8,3.5,56,0.00,,,0.00,,2013-07-27 02:18:00,
2013-07-27 04:23:00,75.7,58.8,29.91,SE,135,1.3,0.0,56,0.00,,,0.00,,2013-07-27 02:23:00,
2013-07-27 04:28:00,75.4,58.5,29.91,ESE,112,1.3,1.3,56,0.00,,,0.00,,2013-07-27 02:28:00,
2013-07-27 04:33:00,75.2,58.8,29.91,ESE,112,1.3,1.3,57,0.00,,,0.00,,2013-07-27 02:33:00,
2013-07-27 04:38:00,75.2,58.8,29.91,East,90,1.3,2.2,57,0.00,,,0.00,,2013-07-27 02:38:00,
2013-07-27 04:43:00,75.2,58.8,29.91,South,180,0.0,0.0,57,0.00,,,0.00,,2013-07-27 02:43:00,
2013-07-27 04:53:00,75.0,58.6,29.91,SE,135,1.7,2.2,57,0.00,,,0.00,,2013-07-27 02:53:00,
2013-07-27 04:58:00,75.0,58.6,29.91,East,90,0.8,0.0,57,0.00,,,0.00,,2013-07-27 02:58:00,
2013-07-27 05:03:00,74.8,58.5,29.91,South,180,1.3,1.3,57,0.00,,,0.00,,2013-07-27 03:03:00,
2013-07-27 05:08:00,74.7,58.3,29.91,East,90,0.8,2.6,57,0.00,,,0.00,,2013-07-27 03:08:00,
2013-07-27 05:13:00,74.7,58.3,29.91,ESE,112,0.8,2.2,57,0.00,,,0.00,,2013-07-27 03:13:00,
2013-07-27 05:23:00,74.5,58.6,29.91,East,90,1.3,1.7,58,0.00,,,0.00,,2013-07-27 03:23:00,
2013-07-27 05:28:00,74.3,58.5,29.91,East,90,0.4,0.0,58,0.00,,,0.00,,2013-07-27 03:28:00,
2013-07-27 05:33:00,74.1,58.3,29.91,NE,45,2.2,2.2,58,0.00,,,0.00,,2013-07-27 03:33:00,
2013-07-27 05:43:00,74.1,58.3,29.91,SE,135,0.8,1.7,58,0.00,,,0.00,,2013-07-27 03:43:00,
2013-07-27 05:48:00,74.1,58.3,29.91,NW,315,0.8,0.0,58,0.00,,,0.00,,2013-07-27 03:48:00,
2013-07-27 05:53:00,73.9,58.1,29.91,East,90,0.4,1.3,58,0.00,,,0.00,,2013-07-27 03:53:00,
2013-07-27 05:58:00,73.9,58.1,29.91,East,90,0.4,0.8,58,0.00,,,0.00,,2013-07-27 03:58:00,
2013-07-27 06:03:00,73.9,58.1,29.91,East,90,1.7,3.5,58,0.00,,,0.00,,2013-07-27 04:03:00,
2013-07-27 06:08:00,74.1,58.3,29.91,East,90,1.3,2.6,58,0.00,,,0.00,,2013-07-27 04:08:00,
2013-07-27 06:13:00,74.1,58.3,29.91,East,90,2.2,2.2,58,0.00,,,0.00,,2013-07-27 04:13:00,
2013-07-27 06:18:00,74.1,58.3,29.91,NE,45,0.8,1.7,58,0.00,,,0.00,,2013-07-27 04:18:00,
2013-07-27 06:23:00,74.1,58.3,29.91,ENE,67,1.3,1.7,58,0.00,,,0.00,,2013-07-27 04:23:00,
2013-07-27 06:28:00,74.1,58.3,29.94,ESE,112,0.8,1.3,58,0.00,,,0.00,,2013-07-27 04:28:00,
2013-07-27 06:33:00,74.1,58.3,29.94,ENE,67,0.0,1.3,58,0.00,,,0.00,,2013-07-27 04:33:00,
2013-07-27 06:38:00,74.3,58.5,29.94,SE,135,1.3,0.0,58,0.00,,,0.00,,2013-07-27 04:38:00,
2013-07-27 06:43:00,74.7,57.7,29.94,East,90,1.7,1.7,56,0.00,,,0.00,,2013-07-27 04:43:00,
2013-07-27 06:48:00,75.0,57.7,29.94,East,90,0.8,4.0,55,0.00,,,0.00,,2013-07-27 04:48:00,
2013-07-27 06:53:00,75.0,57.7,29.94,East,90,1.3,2.2,55,0.00,,,0.00,,2013-07-27 04:53:00,
2013-07-27 06:58:00,75.9,57.4,29.94,NE,45,1.3,1.7,53,0.00,,,0.00,,2013-07-27 04:58:00,
2013-07-27 07:03:00,76.5,56.8,29.94,East,90,1.7,2.2,51,0.00,,,0.00,,2013-07-27 05:03:00,
2013-07-27 07:08:00,76.8,57.2,29.94,ESE,112,1.7,1.7,51,0.00,,,0.00,,2013-07-27 05:08:00,
2013-07-27 07:13:00,77.2,57.0,29.94,East,90,1.3,3.1,50,0.00,,,0.00,,2013-07-27 05:13:00,
2013-07-27 07:18:00,77.5,56.8,29.94,NE,45,2.6,4.9,49,0.00,,,0.00,,2013-07-27 05:18:00,
2013-07-27 07:23:00,77.9,56.5,29.94,ENE,67,2.6,4.0,48,0.00,,,0.00,,2013-07-27 05:23:00,
2013-07-27 07:28:00,78.6,56.7,29.94,East,90,1.7,3.1,47,0.00,,,0.00,,2013-07-27 05:28:00,
2013-07-27 07:33:00,79.0,55.8,29.94,ESE,112,1.7,2.6,45,0.00,,,0.00,,2013-07-27 05:33:00,
2013-07-27 07:38:00,79.9,56.5,29.94,SE,135,0.8,0.8,45,0.00,,,0.00,,2013-07-27 05:38:00,
2013-07-27 07:43:00,80.2,55.6,29.94,SE,135,2.2,4.4,43,0.00,,,0.00,,2013-07-27 05:43:00,
2013-07-27 07:48:00,80.2,55.6,29.94,East,90,0.8,1.7,43,0.00,,,0.00,,2013-07-27 05:48:00,
2013-07-27 07:53:00,81.3,55.9,29.94,SE,135,0.4,0.0,42,0.00,,,0.00,,2013-07-27 05:53:00,
2013-07-27 07:58:00,82.2,54.7,29.94,NE,45,1.3,2.2,39,0.00,,,0.00,,2013-07-27 05:58:00,
2013-07-27 08:03:00,82.4,52.7,29.94,East,90,0.8,2.2,36,0.00,,,0.00,,2013-07-27 06:03:00,
2013-07-27 08:08:00,83.7,53.8,29.94,East,90,0.8,0.8,36,0.00,,,0.00,,2013-07-27 06:08:00,
2013-07-27 08:13:00,83.8,52.3,29.94,NNE,22,1.3,2.2,34,0.00,,,0.00,,2013-07-27 06:13:00,
2013-07-27 08:18:00,84.0,51.8,29.94,East,90,1.7,3.5,33,0.00,,,0.00,,2013-07-27 06:18:00,
2013-07-27 08:23:00,84.0,51.8,29.94,ENE,67,1.7,1.7,33,0.00,,,0.00,,2013-07-27 06:23:00,
2013-07-27 08:28:00,84.9,52.5,29.94,NW,315,0.8,0.8,33,0.00,,,0.00,,2013-07-27 06:28:00,
2013-07-27 08:33:00,85.1,51.8,29.94,North,0,2.6,2.6,32,0.00,,,0.00,,2013-07-27 06:33:00,
2013-07-27 08:38:00,85.5,52.2,29.94,North,0,1.3,2.6,32,0.00,,,0.00,,2013-07-27 06:38:00,
2013-07-27 08:43:00,85.8,52.5,29.94,NNE,22,1.3,1.3,32,0.00,,,0.00,,2013-07-27 06:43:00,
2013-07-27 08:48:00,86.5,50.4,29.94,South,180,3.1,3.1,29,0.00,,,0.00,,2013-07-27 06:48:00,
2013-07-27 08:53:00,87.1,50.0,29.94,North,0,0.4,0.4,28,0.00,,,0.00,,2013-07-27 06:53:00,
2013-07-27 08:58:00,88.5,49.1,29.94,NE,45,1.3,2.6,26,0.00,,,0.00,,2013-07-27 06:58:00,
2013-07-27 09:03:00,88.5,49.1,29.94,North,0,0.4,0.4,26,0.00,,,0.00,,2013-07-27 07:03:00,
2013-07-27 09:08:00,90.0,47.1,29.94,ESE,112,0.4,2.2,23,0.00,,,0.00,,2013-07-27 07:08:00,
2013-07-27 09:13:00,90.3,46.2,29.94,East,90,0.8,4.0,22,0.00,,,0.00,,2013-07-27 07:13:00,
2013-07-27 09:18:00,90.3,47.5,29.94,SE,135,0.8,2.2,23,0.00,,,0.00,,2013-07-27 07:18:00,
2013-07-27 09:23:00,91.9,48.7,29.94,ENE,67,0.8,0.0,23,0.00,,,0.00,,2013-07-27 07:23:00,
2013-07-27 09:28:00,91.8,46.2,29.94,NW,315,1.3,2.2,21,0.00,,,0.00,,2013-07-27 07:28:00,
2013-07-27 09:33:00,91.6,44.8,29.94,SSE,157,2.2,2.6,20,0.00,,,0.00,,2013-07-27 07:33:00,
2013-07-27 09:38:00,92.8,45.9,29.94,NE,45,1.7,1.7,20,0.00,,,0.00,,2013-07-27 07:38:00,
2013-07-27 09:43:00,93.7,46.6,29.94,ENE,67,0.8,2.6,20,0.00,,,0.00,,2013-07-27 07:43:00,
2013-07-27 09:48:00,92.5,45.5,29.94,NW,315,1.3,1.7,20,0.00,,,0.00,,2013-07-27 07:48:00,
2013-07-27 09:53:00,92.7,45.7,29.94,WNW,292,1.7,2.6,20,0.00,,,0.00,,2013-07-27 07:53:00,
2013-07-27 09:58:00,91.9,45.0,29.94,NNE,22,3.1,3.1,20,0.00,,,0.00,,2013-07-27 07:58:00,
2013-07-27 10:03:00,92.8,45.9,29.94,NE,45,0.8,1.3,20,0.00,,,0.00,,2013-07-27 08:03:00,
2013-07-27 10:08:00,92.8,45.9,29.94,NNW,337,0.4,4.4,20,0.00,,,0.00,,2013-07-27 08:08:00,
2013-07-27 10:13:00,93.7,46.6,29.94,East,90,0.4,0.8,20,0.00,,,0.00,,2013-07-27 08:13:00,
2013-07-27 10:18:00,94.3,46.9,29.94,NW,315,1.7,2.2,20,-99.99,,,0.00,,2013-07-27 08:18:00,
2013-07-27 10:23:00,94.6,47.3,29.94,NNW,337,2.2,2.2,20,-99.99,,,0.00,,2013-07-27 08:23:00,
2013-07-27 10:28:00,96.1,48.4,29.94,WNW,292,0.0,1.3,20,0.00,,,0.00,,2013-07-27 08:28:00,
2013-07-27 10:33:00,96.1,48.4,29.94,NW,315,2.6,4.4,20,0.00,,,0.00,,2013-07-27 08:33:00,
2013-07-27 10:38:00,95.0,47.5,29.94,NE,45,3.5,4.4,20,0.00,,,0.00,,2013-07-27 08:38:00,
2013-07-27 10:43:00,96.3,48.6,29.94,North,0,1.3,1.3,20,0.00,,,0.00,,2013-07-27 08:43:00,
2013-07-27 10:48:00,95.0,47.5,29.94,NW,315,4.0,5.3,20,0.00,,,0.00,,2013-07-27 08:48:00,
2013-07-27 10:53:00,94.6,47.3,29.94,NW,315,2.6,4.0,20,0.00,,,0.00,,2013-07-27 08:53:00,
2013-07-27 10:58:00,94.8,47.5,29.94,North,0,1.3,1.3,20,0.00,,,0.00,,2013-07-27 08:58:00,
2013-07-27 11:03:00,96.6,48.9,29.94,North,0,1.7,1.7,20,0.00,,,0.00,,2013-07-27 09:03:00,
2013-07-27 11:08:00,97.0,49.1,29.94,North,0,1.7,2.6,20,0.00,,,0.00,,2013-07-27 09:08:00,
2013-07-27 11:13:00,97.2,49.3,29.94,NNE,22,2.2,3.5,20,0.00,,,0.00,,2013-07-27 09:13:00,
2013-07-27 11:18:00,97.3,49.5,29.94,East,90,1.7,2.6,20,0.00,,,0.00,,2013-07-27 09:18:00,
2013-07-27 11:23:00,98.4,50.4,29.94,NW,315,1.3,3.5,20,0.00,,,0.00,,2013-07-27 09:23:00,
2013-07-27 11:28:00,98.4,50.4,29.94,East,90,2.2,2.6,20,0.00,,,0.00,,2013-07-27 09:28:00,
2013-07-27 11:33:00,98.1,50.0,29.94,NW,315,2.6,4.9,20,0.00,,,0.00,,2013-07-27 09:33:00,
2013-07-27 11:38:00,97.7,49.8,29.94,SE,135,0.8,1.3,20,0.00,,,0.00,,2013-07-27 09:38:00,
2013-07-27 11:43:00,98.6,50.5,29.94,North,0,2.2,2.2,20,0.00,,,0.00,,2013-07-27 09:43:00,
2013-07-27 11:48:00,100.0,51.6,29.94,NE,45,1.7,4.4,20,0.00,,,0.00,,2013-07-27 09:48:00,
2013-07-27 11:53:00,100.6,52.2,29.94,ESE,112,0.8,4.0,20,0.00,,,0.00,,2013-07-27 09:53:00,
2013-07-27 11:58:00,100.0,51.6,29.94,NW,315,2.2,3.1,20,0.00,,,0.00,,2013-07-27 09:58:00,
2013-07-27 12:03:00,100.8,52.3,29.94,North,0,2.6,4.0,20,0.00,,,0.00,,2013-07-27 10:03:00,
2013-07-27 12:08:00,100.6,52.2,29.94,SE,135,2.2,2.6,20,0.00,,,0.00,,2013-07-27 10:08:00,
2013-07-27 12:13:00,101.1,52.5,29.94,East,90,2.2,4.4,20,0.00,,,0.00,,2013-07-27 10:13:00,
2013-07-27 12:18:00,101.5,52.9,29.94,South,180,0.8,1.7,20,0.00,,,0.00,,2013-07-27 10:18:00,
2013-07-27 12:23:00,102.9,54.0,29.94,SE,135,1.3,1.3,20,0.00,,,0.00,,2013-07-27 10:23:00,
2013-07-27 12:28:00,103.1,54.1,29.94,SE,135,2.2,3.1,20,0.00,,,0.00,,2013-07-27 10:28:00,
2013-07-27 12:33:00,103.1,54.1,29.94,North,0,4.4,6.2,20,0.00,,,0.00,,2013-07-27 10:33:00,
2013-07-27 12:38:00,101.7,53.1,29.94,East,90,2.6,3.1,20,0.00,,,0.00,,2013-07-27 10:38:00,
2013-07-27 12:43:00,100.4,52.0,29.94,SE,135,2.2,2.2,20,0.00,,,0.00,,2013-07-27 10:43:00,
2013-07-27 12:48:00,102.6,53.8,29.94,East,90,2.6,2.6,20,0.00,,,0.00,,2013-07-27 10:48:00,
2013-07-27 12:53:00,102.9,54.0,29.94,NE,45,2.2,4.0,20,0.00,,,0.00,,2013-07-27 10:53:00,
2013-07-27 12:58:00,103.5,54.5,29.91,NW,315,3.5,3.5,20,0.00,,,0.00,,2013-07-27 10:58:00,
2013-07-27 13:03:00,99.5,51.3,29.91,NW,315,5.8,5.8,20,0.00,,,0.00,,2013-07-27 11:03:00,
2013-07-27 13:08:00,99.3,51.1,29.94,NW,315,1.7,3.1,20,0.00,,,0.00,,2013-07-27 11:08:00,
2013-07-27 13:13:00,101.8,53.1,29.94,ESE,112,2.2,5.8,20,0.00,,,0.00,,2013-07-27 11:13:00,
2013-07-27 13:18:00,102.4,53.6,29.91,SE,135,2.2,3.1,20,0.00,,,0.00,,2013-07-27 11:18:00,
2013-07-27 13:23:00,104.4,55.2,29.91,NW,315,2.2,2.2,20,0.00,,,0.00,,2013-07-27 11:23:00,
2013-07-27 13:28:00,103.8,54.7,29.91,North,0,5.3,5.3,20,0.00,,,0.00,,2013-07-27 11:28:00,
2013-07-27 13:33:00,104.4,55.2,29.91,East,90,2.6,4.4,20,0.00,,,0.00,,2013-07-27 11:33:00,
2013-07-27 13:38:00,104.4,55.2,29.91,East,90,0.8,3.1,20,0.00,,,0.00,,2013-07-27 11:38:00,
2013-07-27 13:43:00,104.9,55.6,29.91,NNW,337,1.3,1.3,20,0.00,,,0.00,,2013-07-27 11:43:00,
2013-07-27 13:48:00,106.2,56.7,29.91,NW,315,2.2,2.6,20,0.00,,,0.00,,2013-07-27 11:48:00,
2013-07-27 13:53:00,102.4,53.6,29.91,NW,315,5.8,8.9,20,0.00,,,0.00,,2013-07-27 11:53:00,
2013-07-27 13:58:00,101.8,53.1,29.91,NW,315,3.1,5.3,20,0.00,,,0.00,,2013-07-27 11:58:00,
2013-07-27 14:03:00,102.9,54.0,29.91,NE,45,4.4,6.2,20,0.00,,,0.00,,2013-07-27 12:03:00,
2013-07-27 14:08:00,103.1,54.1,29.91,North,0,3.5,5.8,20,0.00,,,0.00,,2013-07-27 12:08:00,
2013-07-27 14:13:00,104.5,55.4,29.91,SE,135,1.3,4.4,20,0.00,,,0.00,,2013-07-27 12:13:00,
2013-07-27 14:18:00,105.8,56.3,29.91,NW,315,1.7,6.2,20,0.00,,,0.00,,2013-07-27 12:18:00,
2013-07-27 14:23:00,101.3,52.7,29.91,West,270,8.9,10.7,20,0.00,,,0.00,,2013-07-27 12:23:00,
2013-07-27 14:28:00,101.5,52.9,29.91,NNW,337,6.7,14.7,20,0.00,,,0.00,,2013-07-27 12:28:00,
2013-07-27 14:33:00,101.1,52.5,29.91,NW,315,6.7,9.3,20,0.00,,,0.00,,2013-07-27 12:33:00,
2013-07-27 14:38:00,101.3,52.7,29.91,NW,315,9.3,9.3,20,0.00,,,0.00,,2013-07-27 12:38:00,
2013-07-27 14:43:00,100.6,52.2,29.91,NW,315,9.3,12.5,20,0.00,,,0.00,,2013-07-27 12:43:00,
2013-07-27 14:48:00,100.6,52.2,29.91,North,0,9.3,9.3,20,0.00,,,0.00,,2013-07-27 12:48:00,
2013-07-27 14:53:00,100.0,51.6,29.91,NW,315,9.3,10.7,20,0.00,,,0.00,,2013-07-27 12:53:00,
2013-07-27 14:58:00,100.8,52.3,29.91,NW,315,4.9,10.7,20,0.00,,,0.00,,2013-07-27 12:58:00,
2013-07-27 15:03:00,99.7,51.4,29.91,North,0,8.5,8.5,20,0.00,,,0.00,,2013-07-27 13:03:00,
2013-07-27 15:08:00,100.9,52.3,29.91,NW,315,10.7,10.7,20,0.00,,,0.00,,2013-07-27 13:08:00,
2013-07-27 15:13:00,99.9,51.4,29.91,NW,315,9.8,9.8,20,0.00,,,0.00,,2013-07-27 13:13:00,
2013-07-27 15:18:00,99.5,51.3,29.91,NW,315,8.5,12.5,20,0.00,,,0.00,,2013-07-27 13:18:00,
2013-07-27 15:23:00,100.8,52.3,29.91,North,0,7.1,7.6,20,0.00,,,0.00,,2013-07-27 13:23:00,
2013-07-27 15:28:00,100.8,52.3,29.91,NW,315,11.1,12.0,20,0.00,,,0.00,,2013-07-27 13:28:00,
2013-07-27 15:33:00,99.7,51.4,29.91,NW,315,9.3,11.6,20,0.00,,,0.00,,2013-07-27 13:33:00,
2013-07-27 15:43:00,100.0,51.6,29.91,NW,315,8.5,11.1,20,0.00,,,0.00,,2013-07-27 13:43:00,
2013-07-27 15:48:00,99.9,51.4,29.91,NW,315,9.8,11.1,20,0.00,,,0.00,,2013-07-27 13:48:00,
2013-07-27 15:53:00,99.5,51.3,29.91,NW,315,10.2,10.7,20,0.00,,,0.00,,2013-07-27 13:53:00,
2013-07-27 15:58:00,100.0,51.6,29.91,NW,315,9.3,9.8,20,0.00,,,0.00,,2013-07-27 13:58:00,
2013-07-27 16:03:00,100.6,52.2,29.91,NW,315,7.1,9.8,20,0.00,,,0.00,,2013-07-27 14:03:00,
2013-07-27 16:08:00,100.0,51.6,29.91,NNW,337,10.7,10.7,20,0.00,,,0.00,,2013-07-27 14:08:00,
2013-07-27 16:13:00,99.5,51.3,29.91,NW,315,8.9,12.5,20,0.00,,,0.00,,2013-07-27 14:13:00,
2013-07-27 16:18:00,100.0,51.6,29.91,North,0,9.3,10.7,20,0.00,,,0.00,,2013-07-27 14:18:00,
2013-07-27 16:23:00,100.2,51.8,29.91,NW,315,8.9,8.9,20,0.00,,,0.00,,2013-07-27 14:23:00,
2013-07-27 16:28:00,100.8,52.3,29.91,NW,315,10.2,10.2,20,0.00,,,0.00,,2013-07-27 14:28:00,
2013-07-27 16:33:00,99.9,51.4,29.91,NW,315,8.0,10.2,20,0.00,,,0.00,,2013-07-27 14:33:00,
2013-07-27 16:38:00,100.0,51.6,29.91,NW,315,7.6,10.2,20,0.00,,,0.00,,2013-07-27 14:38:00,
2013-07-27 16:43:00,99.9,51.4,29.91,NW,315,10.2,10.2,20,0.00,,,0.00,,2013-07-27 14:43:00,
2013-07-27 16:48:00,99.1,50.9,29.91,NW,315,9.8,11.6,20,0.00,,,0.00,,2013-07-27 14:48:00,
2013-07-27 16:53:00,100.0,51.6,29.91,NW,315,8.9,10.2,20,0.00,,,0.00,,2013-07-27 14:53:00,
2013-07-27 16:58:00,99.1,50.9,29.91,NW,315,8.9,13.4,20,0.00,,,0.00,,2013-07-27 14:58:00,
2013-07-27 17:03:00,99.0,50.7,29.91,NW,315,10.2,13.4,20,0.00,,,0.00,,2013-07-27 15:03:00,
2013-07-27 17:08:00,98.6,50.5,29.91,NW,315,10.7,11.1,20,0.00,,,0.00,,2013-07-27 15:08:00,
2013-07-27 17:13:00,98.6,50.5,29.91,NW,315,8.5,8.5,20,0.00,,,0.00,,2013-07-27 15:13:00,
2013-07-27 17:18:00,98.6,50.5,29.91,NW,315,9.8,11.1,20,0.00,,,0.00,,2013-07-27 15:18:00,
2013-07-27 17:23:00,97.9,49.8,29.91,NW,315,10.2,10.2,20,0.00,,,0.00,,2013-07-27 15:23:00,
2013-07-27 17:28:00,98.1,50.0,29.91,North,0,10.2,10.7,20,0.00,,,0.00,,2013-07-27 15:28:00,
2013-07-27 17:33:00,97.5,49.6,29.91,NW,315,9.8,11.6,20,0.00,,,0.00,,2013-07-27 15:33:00,
2013-07-27 17:43:00,96.8,49.1,29.91,NW,315,9.3,12.9,20,0.00,,,0.00,,2013-07-27 15:43:00,
2013-07-27 17:48:00,96.8,49.1,29.91,NW,315,8.9,10.2,20,0.00,,,0.00,,2013-07-27 15:48:00,
2013-07-27 17:53:00,96.8,49.1,29.91,NW,315,9.8,9.8,20,0.00,,,0.00,,2013-07-27 15:53:00,
2013-07-27 17:58:00,96.1,48.4,29.91,NW,315,9.3,12.0,20,0.00,,,0.00,,2013-07-27 15:58:00,
2013-07-27 18:03:00,95.5,48.0,29.91,NW,315,11.1,11.1,20,0.00,,,0.00,,2013-07-27 16:03:00,
2013-07-27 18:08:00,95.7,48.2,29.91,NW,315,9.8,12.5,20,0.00,,,0.00,,2013-07-27 16:08:00,
2013-07-27 18:13:00,95.5,48.0,29.91,NW,315,8.5,11.6,20,0.00,,,0.00,,2013-07-27 16:13:00,
2013-07-27 18:18:00,96.1,48.4,29.91,NNW,337,9.8,9.8,20,0.00,,,0.00,,2013-07-27 16:18:00,
2013-07-27 18:28:00,95.2,47.7,29.91,WNW,292,8.5,8.5,20,0.00,,,0.00,,2013-07-27 16:28:00,
2013-07-27 18:33:00,95.0,47.5,29.91,NW,315,8.9,8.9,20,0.00,,,0.00,,2013-07-27 16:33:00,
2013-07-27 18:38:00,94.8,47.5,29.91,NW,315,7.6,10.2,20,0.00,,,0.00,,2013-07-27 16:38:00,
2013-07-27 18:43:00,94.6,47.3,29.91,NW,315,7.6,8.0,20,0.00,,,0.00,,2013-07-27 16:43:00,
2013-07-27 18:48:00,94.5,47.1,29.91,WNW,292,7.6,11.1,20,0.00,,,0.00,,2013-07-27 16:48:00,
2013-07-27 18:53:00,93.9,46.6,29.91,NW,315,6.7,7.6,20,0.00,,,0.00,,2013-07-27 16:53:00,
2013-07-27 18:58:00,93.9,46.6,29.91,NW,315,6.7,8.5,20,0.00,,,0.00,,2013-07-27 16:58:00,
2013-07-27 19:03:00,93.9,46.6,29.91,NW,315,5.3,6.2,20,0.00,,,0.00,,2013-07-27 17:03:00,
2013-07-27 19:08:00,93.9,46.6,29.91,WNW,292,4.9,5.3,20,0.00,,,0.00,,2013-07-27 17:08:00,
2013-07-27 19:13:00,93.9,46.6,29.91,NW,315,5.3,5.3,20,0.00,,,0.00,,2013-07-27 17:13:00,
2013-07-27 19:18:00,93.6,46.4,29.91,NW,315,6.2,8.0,20,0.00,,,0.00,,2013-07-27 17:18:00,
2013-07-27 19:23:00,92.7,45.7,29.91,NW,315,5.8,5.8,20,0.00,,,0.00,,2013-07-27 17:23:00,
2013-07-27 19:28:00,92.8,45.9,29.91,NW,315,6.2,7.6,20,0.00,,,0.00,,2013-07-27 17:28:00,
2013-07-27 19:33:00,92.5,45.5,29.91,NW,315,5.8,7.6,20,0.00,,,0.00,,2013-07-27 17:33:00,
2013-07-27 19:38:00,91.9,45.0,29.91,NW,315,5.8,6.7,20,0.00,,,0.00,,2013-07-27 17:38:00,
2013-07-27 19:43:00,91.4,44.6,29.91,NW,315,5.8,7.6,20,0.00,,,0.00,,2013-07-27 17:43:00,
2013-07-27 19:48:00,91.0,46.8,29.91,NW,315,5.3,5.3,22,0.00,,,0.00,,2013-07-27 17:48:00,
2013-07-27 19:54:00,90.0,50.4,29.91,NW,315,7.1,8.5,26,0.00,,,0.00,,2013-07-27 17:54:00,
2013-07-27 19:59:00,89.2,52.7,29.91,NW,315,6.2,6.2,29,0.00,,,0.00,,2013-07-27 17:59:00,
2013-07-27 20:04:00,88.7,53.2,29.91,West,270,3.5,4.4,30,0.00,,,0.00,,2013-07-27 18:04:00,
2013-07-27 20:09:00,88.5,54.0,29.91,WNW,292,4.0,4.0,31,0.00,,,0.00,,2013-07-27 18:09:00,
2013-07-27 20:14:00,88.2,53.6,29.91,West,270,1.7,4.4,31,0.00,,,0.00,,2013-07-27 18:14:00,
2013-07-27 20:19:00,87.6,54.0,29.91,NW,315,3.5,5.3,32,0.00,,,0.00,,2013-07-27 18:19:00,
2013-07-27 20:24:00,87.1,54.3,29.91,NW,315,2.2,3.1,33,0.00,,,0.00,,2013-07-27 18:24:00,
2013-07-27 20:29:00,86.2,55.2,29.91,West,270,2.2,4.0,35,0.00,,,0.00,,2013-07-27 18:29:00,
2013-07-27 20:34:00,85.8,54.9,29.91,SW,225,1.7,1.7,35,0.00,,,0.00,,2013-07-27 18:34:00,
2013-07-27 20:39:00,85.6,55.6,29.91,West,270,1.7,2.6,36,0.00,,,0.00,,2013-07-27 18:39:00,
2013-07-27 20:44:00,85.3,57.4,29.94,West,270,1.7,3.1,39,0.00,,,0.00,,2013-07-27 18:44:00,
2013-07-27 20:49:00,85.1,56.5,29.94,West,270,2.2,2.2,38,0.00,,,0.00,,2013-07-27 18:49:00,
2013-07-27 20:54:00,85.1,56.5,29.94,West,270,2.2,2.2,38,0.00,,,0.00,,2013-07-27 18:54:00,
2013-07-27 20:59:00,84.6,58.1,29.91,NW,315,0.4,0.8,41,0.00,,,0.00,,2013-07-27 18:59:00,
2013-07-27 21:04:00,84.4,58.6,29.91,NW,315,0.4,3.1,42,0.00,,,0.00,,2013-07-27 19:04:00,
2013-07-27 21:09:00,84.2,58.5,29.94,NW,315,3.1,3.1,42,0.00,,,0.00,,2013-07-27 19:09:00,
2013-07-27 21:14:00,84.2,58.5,29.94,NW,315,3.5,4.9,42,0.00,,,0.00,,2013-07-27 19:14:00,
2013-07-27 21:19:00,83.8,58.8,29.94,NW,315,3.1,3.1,43,0.00,,,0.00,,2013-07-27 19:19:00,
2013-07-27 21:24:00,83.7,58.6,29.94,NW,315,3.1,3.1,43,0.00,,,0.00,,2013-07-27 19:24:00,
2013-07-27 21:29:00,83.5,58.5,29.94,NW,315,2.2,3.5,43,0.00,,,0.00,,2013-07-27 19:29:00,
2013-07-27 21:34:00,83.3,58.5,29.94,NW,315,0.4,3.5,43,0.00,,,0.00,,2013-07-27 19:34:00,
2013-07-27 21:39:00,83.3,59.0,29.94,West,270,1.7,2.6,44,0.00,,,0.00,,2013-07-27 19:39:00,
2013-07-27 21:44:00,83.1,58.8,29.94,NW,315,2.2,2.2,44,0.00,,,0.00,,2013-07-27 19:44:00,
2013-07-27 21:49:00,83.1,58.8,29.94,NW,315,3.5,4.4,44,0.00,,,0.00,,2013-07-27 19:49:00,
2013-07-27 21:54:00,82.9,59.4,29.94,NW,315,3.5,4.4,45,0.00,,,0.00,,2013-07-27 19:54:00,
2013-07-27 21:59:00,82.6,59.5,29.94,NW,315,3.1,3.5,46,0.00,,,0.00,,2013-07-27 19:59:00,
2013-07-27 22:04:00,82.6,59.5,29.94,NNW,337,2.2,3.1,46,0.00,,,0.00,,2013-07-27 20:04:00,
2013-07-27 22:09:00,82.6,59.5,29.94,NW,315,1.7,2.6,46,0.00,,,0.00,,2013-07-27 20:09:00,
2013-07-27 22:14:00,82.4,58.8,29.94,West,270,0.4,2.2,45,0.00,,,0.00,,2013-07-27 20:14:00,
2013-07-27 22:19:00,82.2,59.4,29.94,NW,315,2.2,2.2,46,0.00,,,0.00,,2013-07-27 20:19:00,
2013-07-27 22:24:00,82.2,59.4,29.94,NW,315,3.1,3.1,46,0.00,,,0.00,,2013-07-27 20:24:00,
2013-07-27 22:29:00,82.0,59.2,29.94,South,180,0.0,0.0,46,0.00,,,0.00,,2013-07-27 20:29:00,
2013-07-27 22:34:00,81.7,59.4,29.94,NW,315,0.0,0.0,47,0.00,,,0.00,,2013-07-27 20:34:00,
2013-07-27 22:39:00,81.7,59.4,29.94,NW,315,0.4,0.0,47,0.00,,,0.00,,2013-07-27 20:39:00,
2013-07-27 22:44:00,81.5,58.6,29.94,NW,315,0.0,0.0,46,0.00,,,0.00,,2013-07-27 20:44:00,
2013-07-27 22:49:00,81.3,59.0,29.94,South,180,0.8,1.3,47,0.00,,,0.00,,2013-07-27 20:49:00,
2013-07-27 22:54:00,81.1,59.5,29.94,South,180,0.8,1.3,48,0.00,,,0.00,,2013-07-27 20:54:00,
2013-07-27 22:59:00,81.5,58.6,29.94,South,180,0.8,0.8,46,0.00,,,0.00,,2013-07-27 20:59:00,
2013-07-27 23:04:00,81.5,58.1,29.94,South,180,0.8,0.8,45,0.00,,,0.00,,2013-07-27 21:04:00,
2013-07-27 23:09:00,81.3,57.9,29.94,South,180,0.0,0.4,45,0.00,,,0.00,,2013-07-27 21:09:00,
2013-07-27 23:14:00,81.1,56.5,29.94,South,180,1.3,0.0,43,0.00,,,0.00,,2013-07-27 21:14:00,
2013-07-27 23:19:00,81.1,56.5,29.94,NW,315,1.3,1.7,43,0.00,,,0.00,,2013-07-27 21:19:00,
2013-07-27 23:24:00,81.1,57.7,29.94,NW,315,0.0,0.4,45,0.00,,,0.00,,2013-07-27 21:24:00,
2013-07-27 23:29:00,80.8,57.4,29.94,NW,315,0.0,0.0,45,0.00,,,0.00,,2013-07-27 21:29:00,
2013-07-27 23:34:00,80.6,57.7,29.94,NW,315,0.0,0.0,46,0.00,,,0.00,,2013-07-27 21:34:00,
2013-07-27 23:39:00,80.1,57.4,29.94,NW,315,0.0,0.0,46,0.00,,,0.00,,2013-07-27 21:39:00,
2013-07-27 23:44:00,80.1,57.4,29.94,NW,315,0.4,0.0,46,0.00,,,0.00,,2013-07-27 21:44:00,
2013-07-27 23:49:00,80.2,56.8,29.94,NW,315,1.3,1.3,45,0.00,,,0.00,,2013-07-27 21:49:00,
2013-07-27 23:54:00,79.9,57.2,29.94,NW,315,1.3,1.3,46,0.00,,,0.00,,2013-07-27 21:54:00,
2013-07-27 23:59:00,79.9,57.2,29.94,NW,315,0.0,0.0,46,0.00,,,0.00,,2013-07-27 21:59:00,